Time,TemperatureF,DewpointF,PressureIn,WindDirection,WindDirectionDegrees,WindSpeedMPH,WindSpeedGustMPH,Humidity,HourlyPrecipIn,Conditions,Clouds,dailyrainin,SoftwareType,DateUTC
2013-01-07 00:02:00,39.0,38.0,29.97,SSW,204,1.0,3.0,95,0.01,,,0.14,,2013-01-07 08:02:00,
2013-01-07 00:11:00,39.0,38.0,29.97,SSW,204,1.0,3.0,95,0.01,,,0.14,,2013-01-07 08:11:00,
2013-01-07 00:22:00,39.0,38.0,29.96,NE,48,0.0,3.0,95,0.01,,,0.14,,2013-01-07 08:22:00,
2013-01-07 00:32:00,39.0,38.0,29.95,NE,48,0.0,3.0,96,0.03,,,0.16,,2013-01-07 08:32:00,
2013-01-07 00:42:00,39.0,38.0,29.95,NE,48,0.0,3.0,96,0.03,,,0.16,,2013-01-07 08:42:00,
2013-01-07 00:52:00,40.0,39.0,29.95,NE,48,0.0,2.0,96,0.03,,,0.17,,2013-01-07 08:52:00,
2013-01-07 01:02:00,40.0,39.0,29.95,NE,48,0.0,1.0,96,0.04,,,0.17,,2013-01-07 09:02:00,
2013-01-07 01:12:00,40.0,39.0,29.95,NE,48,0.0,1.0,96,0.04,,,0.17,,2013-01-07 09:12:00,
2013-01-07 01:22:00,40.0,39.0,29.93,NE,48,0.0,3.0,96,0.05,,,0.18,,2013-01-07 09:22:00,
2013-01-07 01:32:00,40.0,39.0,29.93,North,359,0.0,2.0,96,0.04,,,0.19,,2013-01-07 09:32:00,
2013-01-07 01:42:00,40.0,39.0,29.93,North,359,0.0,2.0,96,0.04,,,0.19,,2013-01-07 09:42:00,
2013-01-07 01:52:00,40.0,39.0,29.94,North,359,0.0,2.0,97,0.04,,,0.20,,2013-01-07 09:52:00,
2013-01-07 02:02:00,40.0,39.0,29.94,North,359,1.0,3.0,98,0.04,,,0.21,,2013-01-07 10:02:00,
2013-01-07 02:11:00,40.0,39.0,29.94,North,359,1.0,3.0,98,0.04,,,0.21,,2013-01-07 10:11:00,
2013-01-07 02:22:00,40.0,39.0,29.93,North,359,1.0,3.0,97,0.06,,,0.24,,2013-01-07 10:22:00,
2013-01-07 02:32:00,40.0,39.0,29.92,North,359,0.0,3.0,97,0.07,,,0.26,,2013-01-07 10:32:00,
2013-01-07 02:42:00,40.0,39.0,29.92,North,359,0.0,3.0,97,0.07,,,0.26,,2013-01-07 10:42:00,
2013-01-07 02:52:00,41.0,40.0,29.91,North,359,0.0,4.0,98,0.06,,,0.26,,2013-01-07 10:52:00,
2013-01-07 03:01:00,41.0,40.0,29.91,North,359,0.0,2.0,97,0.05,,,0.26,,2013-01-07 11:01:00,
2013-01-07 03:12:00,41.0,40.0,29.91,North,359,0.0,2.0,97,0.05,,,0.26,,2013-01-07 11:12:00,
2013-01-07 03:22:00,41.0,40.0,29.89,North,359,1.0,4.0,97,0.02,,,0.26,,2013-01-07 11:22:00,
2013-01-07 03:32:00,41.0,40.0,29.89,ESE,116,1.0,3.0,98,0.00,,,0.26,,2013-01-07 11:32:00,
2013-01-07 03:42:00,41.0,40.0,29.89,ESE,116,1.0,3.0,98,0.00,,,0.26,,2013-01-07 11:42:00,
2013-01-07 03:53:00,41.0,40.0,29.89,WSW,249,0.0,4.0,98,0.00,,,0.26,,2013-01-07 11:53:00,
2013-01-07 04:02:00,42.0,41.0,29.88,NE,41,0.0,3.0,97,0.00,,,0.26,,2013-01-07 12:02:00,
2013-01-07 04:12:00,42.0,41.0,29.86,NE,52,0.0,4.0,97,0.00,,,0.26,,2013-01-07 12:12:00,
2013-01-07 04:22:00,42.0,41.0,29.86,NE,52,0.0,4.0,97,0.00,,,0.26,,2013-01-07 12:22:00,
2013-01-07 04:32:00,42.0,41.0,29.85,SE,128,0.0,3.0,98,0.01,,,0.27,,2013-01-07 12:32:00,
2013-01-07 04:42:00,42.0,41.0,29.85,SE,128,0.0,3.0,98,0.01,,,0.27,,2013-01-07 12:42:00,
2013-01-07 04:53:00,42.0,41.0,29.85,South,179,1.0,3.0,98,0.01,,,0.27,,2013-01-07 12:53:00,
2013-01-07 05:02:00,42.0,41.0,29.84,ESE,122,0.0,5.0,98,0.01,,,0.27,,2013-01-07 13:02:00,
2013-01-07 05:12:00,42.0,41.0,29.84,ESE,122,0.0,5.0,98,0.01,,,0.27,,2013-01-07 13:12:00,
2013-01-07 05:22:00,42.0,41.0,29.83,SSE,151,2.0,5.0,98,0.01,,,0.27,,2013-01-07 13:22:00,
2013-01-07 05:32:00,42.0,41.0,29.82,NNE,19,1.0,6.0,98,0.00,,,0.27,,2013-01-07 13:32:00,
2013-01-07 05:42:00,42.0,41.0,29.82,NNE,19,1.0,6.0,98,0.00,,,0.27,,2013-01-07 13:42:00,
2013-01-07 05:53:00,43.0,42.0,29.80,SE,133,2.0,4.0,98,0.00,,,0.27,,2013-01-07 13:53:00,
2013-01-07 06:02:00,43.0,42.0,29.80,SSW,199,1.0,6.0,98,0.00,,,0.27,,2013-01-07 14:02:00,
2013-01-07 06:12:00,43.0,42.0,29.80,SSW,199,1.0,6.0,98,0.00,,,0.27,,2013-01-07 14:12:00,
2013-01-07 06:22:00,43.0,42.0,29.82,SE,128,1.0,4.0,97,0.00,,,0.27,,2013-01-07 14:22:00,
2013-01-07 06:32:00,43.0,42.0,29.81,SSE,148,0.0,5.0,98,0.00,,,0.27,,2013-01-07 14:32:00,
2013-01-07 06:42:00,43.0,42.0,29.81,SSE,148,0.0,5.0,98,0.00,,,0.27,,2013-01-07 14:42:00,
2013-01-07 06:53:00,43.0,42.0,29.81,SSE,149,2.0,7.0,97,0.00,,,0.27,,2013-01-07 14:53:00,
2013-01-07 07:02:00,43.0,42.0,29.81,SE,142,1.0,6.0,98,0.01,,,0.28,,2013-01-07 15:02:00,
2013-01-07 07:12:00,43.0,42.0,29.81,SE,142,1.0,6.0,98,0.01,,,0.28,,2013-01-07 15:12:00,
2013-01-07 07:22:00,43.0,42.0,29.81,SSE,149,2.0,7.0,98,0.01,,,0.28,,2013-01-07 15:22:00,
2013-01-07 07:33:00,44.0,43.0,29.79,ESE,116,3.0,9.0,97,0.01,,,0.28,,2013-01-07 15:33:00,
2013-01-07 07:42:00,44.0,43.0,29.79,ESE,116,3.0,9.0,97,0.01,,,0.28,,2013-01-07 15:42:00,
2013-01-07 07:53:00,44.0,43.0,29.79,SE,146,0.0,10.0,97,0.01,,,0.28,,2013-01-07 15:53:00,
2013-01-07 08:02:00,44.0,43.0,29.79,SE,142,3.0,11.0,97,0.00,,,0.28,,2013-01-07 16:02:00,
2013-01-07 08:12:00,44.0,43.0,29.79,SE,142,3.0,11.0,97,0.00,,,0.28,,2013-01-07 16:12:00,
2013-01-07 08:22:00,45.0,44.0,29.79,SE,146,2.0,10.0,97,0.00,,,0.28,,2013-01-07 16:22:00,
2013-01-07 08:32:00,45.0,44.0,29.80,SE,140,2.0,12.0,97,0.00,,,0.28,,2013-01-07 16:32:00,
2013-01-07 08:42:00,45.0,44.0,29.80,SE,140,2.0,12.0,97,0.00,,,0.28,,2013-01-07 16:42:00,
2013-01-07 08:53:00,46.0,45.0,29.82,SE,132,4.0,7.0,96,0.00,,,0.28,,2013-01-07 16:53:00,
2013-01-07 09:02:00,46.0,45.0,29.82,SE,129,3.0,6.0,95,0.00,,,0.28,,2013-01-07 17:02:00,
2013-01-07 09:12:00,46.0,45.0,29.82,SE,129,3.0,6.0,95,0.00,,,0.28,,2013-01-07 17:12:00,
2013-01-07 09:22:00,46.0,45.0,29.82,ENE,62,3.0,7.0,96,0.00,,,0.28,,2013-01-07 17:22:00,
2013-01-07 09:32:00,46.0,45.0,29.83,SSE,165,1.0,5.0,95,0.00,,,0.28,,2013-01-07 17:32:00,
2013-01-07 09:42:00,46.0,45.0,29.83,SSE,165,1.0,5.0,95,0.00,,,0.28,,2013-01-07 17:42:00,
2013-01-07 09:53:00,47.0,46.0,29.83,SE,136,1.0,11.0,95,0.00,,,0.28,,2013-01-07 17:53:00,
2013-01-07 10:02:00,47.0,46.0,29.84,South,172,1.0,11.0,95,0.00,,,0.28,,2013-01-07 18:02:00,
2013-01-07 10:12:00,47.0,46.0,29.84,South,172,1.0,11.0,95,0.00,,,0.28,,2013-01-07 18:12:00,
2013-01-07 10:23:00,47.0,46.0,29.85,SSE,166,2.0,9.0,97,0.00,,,0.28,,2013-01-07 18:23:00,
2013-01-07 10:32:00,47.0,46.0,29.86,SSE,149,3.0,9.0,96,0.00,,,0.28,,2013-01-07 18:32:00,
2013-01-07 10:42:00,47.0,46.0,29.86,SSE,149,3.0,9.0,96,0.00,,,0.28,,2013-01-07 18:42:00,
2013-01-07 10:52:00,47.0,46.0,29.86,SE,131,1.0,11.0,96,0.00,,,0.28,,2013-01-07 18:52:00,
2013-01-07 11:02:00,47.0,46.0,29.87,SE,144,2.0,6.0,97,0.00,,,0.28,,2013-01-07 19:02:00,
2013-01-07 11:12:00,47.0,46.0,29.87,SE,144,2.0,6.0,97,0.00,,,0.28,,2013-01-07 19:12:00,
2013-01-07 11:22:00,47.0,46.0,29.88,East,98,2.0,10.0,97,0.00,,,0.28,,2013-01-07 19:22:00,
2013-01-07 11:32:00,47.0,46.0,29.87,SSE,165,1.0,9.0,97,0.00,,,0.28,,2013-01-07 19:32:00,
2013-01-07 11:42:00,47.0,46.0,29.87,SSE,165,1.0,9.0,97,0.00,,,0.28,,2013-01-07 19:42:00,
2013-01-07 11:53:00,47.0,46.0,29.86,SSE,150,1.0,6.0,97,0.00,,,0.28,,2013-01-07 19:53:00,
2013-01-07 12:02:00,47.0,46.0,29.87,South,174,1.0,8.0,97,0.00,,,0.28,,2013-01-07 20:02:00,
2013-01-07 12:12:00,47.0,46.0,29.87,South,174,1.0,8.0,97,0.00,,,0.28,,2013-01-07 20:12:00,
2013-01-07 12:22:00,48.0,47.0,29.87,SSE,149,3.0,6.0,96,0.00,,,0.28,,2013-01-07 20:22:00,
2013-01-07 12:32:00,48.0,47.0,29.88,SE,135,3.0,9.0,96,0.00,,,0.28,,2013-01-07 20:32:00,
2013-01-07 12:42:00,48.0,47.0,29.88,SE,135,3.0,9.0,96,0.00,,,0.28,,2013-01-07 20:42:00,
2013-01-07 12:53:00,48.0,47.0,29.88,SSE,160,2.0,7.0,96,0.00,,,0.28,,2013-01-07 20:53:00,
2013-01-07 13:02:00,48.0,47.0,29.88,ESE,115,4.0,8.0,96,0.00,,,0.28,,2013-01-07 21:02:00,
2013-01-07 13:12:00,48.0,47.0,29.88,ESE,115,4.0,8.0,96,0.00,,,0.28,,2013-01-07 21:12:00,
2013-01-07 13:22:00,48.0,47.0,29.89,SSE,167,3.0,6.0,95,0.00,,,0.28,,2013-01-07 21:22:00,
2013-01-07 13:32:00,48.0,46.0,29.90,WNW,303,3.0,8.0,94,0.00,,,0.28,,2013-01-07 21:32:00,
2013-01-07 13:42:00,48.0,46.0,29.90,WNW,303,3.0,8.0,94,0.00,,,0.28,,2013-01-07 21:42:00,
2013-01-07 13:53:00,48.0,46.0,29.92,SE,133,1.0,7.0,93,0.00,,,0.28,,2013-01-07 21:53:00,
2013-01-07 14:02:00,48.0,46.0,29.94,SE,130,5.0,10.0,92,0.00,,,0.28,,2013-01-07 22:02:00,
2013-01-07 14:12:00,48.0,46.0,29.94,SE,130,5.0,10.0,92,0.00,,,0.28,,2013-01-07 22:12:00,
2013-01-07 14:22:00,48.0,45.0,29.94,NE,56,2.0,7.0,91,0.00,,,0.28,,2013-01-07 22:22:00,
2013-01-07 14:33:00,49.0,46.0,29.94,ESE,108,3.0,8.0,90,0.00,,,0.28,,2013-01-07 22:33:00,
2013-01-07 14:42:00,49.0,46.0,29.94,ESE,108,3.0,8.0,90,0.00,,,0.28,,2013-01-07 22:42:00,
2013-01-07 14:53:00,49.0,46.0,29.95,SSE,163,2.0,8.0,91,0.00,,,0.28,,2013-01-07 22:53:00,
2013-01-07 15:02:00,48.0,45.0,29.94,NW,325,1.0,8.0,90,0.00,,,0.28,,2013-01-07 23:02:00,
2013-01-07 15:11:00,48.0,45.0,29.94,NW,325,1.0,8.0,90,0.00,,,0.28,,2013-01-07 23:11:00,
2013-01-07 15:22:00,48.0,45.0,29.95,WNW,301,3.0,6.0,90,0.00,,,0.28,,2013-01-07 23:22:00,
2013-01-07 15:32:00,48.0,45.0,29.97,NW,325,2.0,9.0,90,0.00,,,0.28,,2013-01-07 23:32:00,
2013-01-07 15:42:00,48.0,45.0,29.97,NW,325,2.0,9.0,90,0.00,,,0.28,,2013-01-07 23:42:00,
2013-01-07 15:53:00,48.0,45.0,29.98,ESE,106,1.0,11.0,89,0.00,,,0.28,,2013-01-07 23:53:00,
2013-01-07 16:02:00,48.0,45.0,29.99,SE,137,2.0,6.0,90,0.00,,,0.28,,2013-01-08 00:02:00,
2013-01-07 16:12:00,48.0,45.0,29.99,SE,137,2.0,6.0,90,0.00,,,0.28,,2013-01-08 00:12:00,
2013-01-07 16:22:00,47.0,44.0,30.00,WSW,245,2.0,8.0,90,0.00,,,0.28,,2013-01-08 00:22:00,
2013-01-07 16:32:00,48.0,45.0,30.01,SSW,204,1.0,5.0,89,0.00,,,0.28,,2013-01-08 00:32:00,
2013-01-07 16:42:00,48.0,45.0,30.01,SSW,204,1.0,5.0,89,0.00,,,0.28,,2013-01-08 00:42:00,
2013-01-07 16:52:00,47.0,44.0,30.01,WNW,299,1.0,6.0,90,0.00,,,0.28,,2013-01-08 00:52:00,
2013-01-07 17:02:00,47.0,44.0,30.01,ESE,106,1.0,6.0,90,0.00,,,0.28,,2013-01-08 01:02:00,
2013-01-07 17:11:00,47.0,44.0,30.01,ESE,106,1.0,6.0,90,0.00,,,0.28,,2013-01-08 01:11:00,
2013-01-07 17:22:00,47.0,44.0,30.03,East,96,1.0,7.0,90,0.00,,,0.28,,2013-01-08 01:22:00,
2013-01-07 17:32:00,47.0,44.0,30.02,ESE,102,2.0,5.0,90,0.00,,,0.28,,2013-01-08 01:32:00,
2013-01-07 17:42:00,47.0,44.0,30.02,ESE,102,2.0,5.0,90,0.00,,,0.28,,2013-01-08 01:42:00,
2013-01-07 17:52:00,47.0,44.0,30.03,North,358,2.0,9.0,90,0.00,,,0.28,,2013-01-08 01:52:00,
2013-01-07 18:02:00,47.0,44.0,30.03,SSE,156,2.0,7.0,90,0.00,,,0.28,,2013-01-08 02:02:00,
2013-01-07 18:12:00,47.0,44.0,30.03,SSE,156,2.0,7.0,90,0.00,,,0.28,,2013-01-08 02:12:00,
2013-01-07 18:22:00,47.0,44.0,30.04,SSE,148,4.0,7.0,90,0.00,,,0.28,,2013-01-08 02:22:00,
2013-01-07 18:32:00,47.0,44.0,30.04,ENE,61,2.0,6.0,90,0.00,,,0.28,,2013-01-08 02:32:00,
2013-01-07 18:42:00,47.0,44.0,30.04,ENE,61,2.0,6.0,90,0.00,,,0.28,,2013-01-08 02:42:00,
2013-01-07 18:53:00,47.0,44.0,30.05,SE,128,1.0,4.0,89,0.00,,,0.28,,2013-01-08 02:53:00,
2013-01-07 19:02:00,47.0,44.0,30.05,North,352,1.0,5.0,90,0.00,,,0.26,,2013-01-08 03:02:00,
2013-01-07 19:12:00,47.0,44.0,30.05,North,352,1.0,5.0,90,0.00,,,0.26,,2013-01-08 03:12:00,
2013-01-07 19:22:00,46.0,43.0,30.06,SSE,165,3.0,5.0,89,0.00,,,0.26,,2013-01-08 03:22:00,
2013-01-07 19:32:00,47.0,44.0,30.07,SSE,166,0.0,5.0,88,0.00,,,0.26,,2013-01-08 03:32:00,
2013-01-07 19:42:00,47.0,44.0,30.07,SSE,166,0.0,5.0,88,0.00,,,0.26,,2013-01-08 03:42:00,
2013-01-07 19:53:00,46.0,43.0,30.07,East,100,1.0,4.0,89,0.00,,,0.26,,2013-01-08 03:53:00,
2013-01-07 20:02:00,46.0,42.0,30.06,ESE,121,1.0,8.0,87,0.00,,,0.24,,2013-01-08 04:02:00,
2013-01-07 20:11:00,46.0,42.0,30.06,ESE,121,1.0,8.0,87,0.00,,,0.24,,2013-01-08 04:11:00,
2013-01-07 20:22:00,46.0,42.0,30.06,SE,145,0.0,11.0,87,0.00,,,0.24,,2013-01-08 04:22:00,
2013-01-07 20:32:00,46.0,42.0,30.08,ESE,104,2.0,9.0,87,0.00,,,0.24,,2013-01-08 04:32:00,
2013-01-07 20:42:00,46.0,42.0,30.08,ESE,104,2.0,9.0,87,0.00,,,0.24,,2013-01-08 04:42:00,
2013-01-07 20:52:00,46.0,42.0,30.08,SW,218,3.0,8.0,86,0.00,,,0.24,,2013-01-08 04:52:00,
2013-01-07 21:03:00,46.0,42.0,30.09,NE,53,1.0,3.0,86,0.00,,,0.20,,2013-01-08 05:03:00,
2013-01-07 21:12:00,46.0,42.0,30.09,NE,53,1.0,3.0,86,0.00,,,0.20,,2013-01-08 05:12:00,
2013-01-07 21:22:00,46.0,42.0,30.10,SE,125,1.0,7.0,87,0.00,,,0.20,,2013-01-08 05:22:00,
2013-01-07 21:32:00,45.0,41.0,30.10,SSE,151,2.0,5.0,87,0.00,,,0.20,,2013-01-08 05:32:00,
2013-01-07 21:42:00,45.0,41.0,30.10,SSE,151,2.0,5.0,87,0.00,,,0.20,,2013-01-08 05:42:00,
2013-01-07 21:53:00,45.0,41.0,30.11,ESE,117,2.0,4.0,87,0.00,,,0.20,,2013-01-08 05:53:00,
2013-01-07 22:02:00,45.0,41.0,30.11,SSE,160,1.0,6.0,87,0.00,,,0.17,,2013-01-08 06:02:00,
2013-01-07 22:11:00,45.0,41.0,30.11,SSE,160,1.0,6.0,87,0.00,,,0.17,,2013-01-08 06:11:00,
2013-01-07 22:22:00,45.0,41.0,30.11,SE,137,1.0,6.0,87,0.00,,,0.17,,2013-01-08 06:22:00,
2013-01-07 22:32:00,45.0,41.0,30.12,SE,134,1.0,7.0,87,0.00,,,0.17,,2013-01-08 06:32:00,
2013-01-07 22:42:00,45.0,41.0,30.12,SE,134,1.0,7.0,87,0.00,,,0.17,,2013-01-08 06:42:00,
2013-01-07 22:52:00,45.0,41.0,30.12,East,96,2.0,8.0,86,0.00,,,0.17,,2013-01-08 06:52:00,
2013-01-07 23:02:00,45.0,41.0,30.12,SE,139,0.0,5.0,86,0.00,,,0.16,,2013-01-08 07:02:00,
2013-01-07 23:11:00,45.0,41.0,30.12,SE,139,0.0,5.0,86,0.00,,,0.16,,2013-01-08 07:11:00,
2013-01-07 23:22:00,45.0,41.0,30.14,SE,136,3.0,6.0,86,0.00,,,0.16,,2013-01-08 07:22:00,
2013-01-07 23:32:00,45.0,41.0,30.14,SSE,161,2.0,4.0,86,0.00,,,0.16,,2013-01-08 07:32:00,
2013-01-07 23:42:00,45.0,41.0,30.14,SSE,161,2.0,4.0,86,0.00,,,0.16,,2013-01-08 07:42:00,
2013-01-07 23:52:00,45.0,41.0,30.14,SSE,158,1.0,8.0,86,0.00,,,0.16,,2013-01-08 07:52:00,